Location: Grossmotten
(48.5500°N, 15.3833°E)
Time: 07:54:28
(UTC+00:00)

Cosmos 1535 Rocket - Pass Details

Date: 15 November 2019
Orbit: 948 x 1005 km, 83.0° (Epoch: 05 December)

Event Time Altitude Azimuth Distance (km) Brightness Sun altitude
Exits shadow 03:11:11 82° 228° (SW) 980 4.3 -28.8°
Maximum altitude 03:11:25 85° 277° (W) 974 4.3 -28.7°
Drops below altitude 10° 03:17:37 10° 8° (N) 2,696 6.9 -27.7°
Sets 03:20:07 0° 9° (N) 3,641 7.6 -27.3°
